HON22 KGRI-KBBW

Flight info

Callsign HON22
Flight time 0h 20m
Altitude 10000
Route PECKS BECOL
Aircraft HDJT/L-SABDGRWY/H

Departure

Time 2026-05-09 01:46
Airport Central Nebraska Regional Airport (KGRI)

Arrival

Time 2026-05-09 02:07
Airport Broken Bow Municipal Airport (KBBW)
Time Latitude Longitude Altitude Speed Heading
2026-05-09 01:20 40.97196 -98.31817 1845 ft 0 kts 273°
2026-05-09 01:37 40.97200 -98.31822 1845 ft 3 kts
2026-05-09 01:38 40.97204 -98.31813 1844 ft 0 kts 88°
2026-05-09 01:39 40.97202 -98.31799 1844 ft 8 kts 100°
2026-05-09 01:39 40.97136 -98.31683 1844 ft 28 kts 178°
2026-05-09 01:39 40.97028 -98.31700 1845 ft 6 kts 198°
2026-05-09 01:39 40.96963 -98.31684 1845 ft 20 kts 170°
2026-05-09 01:40 40.96850 -98.31683 1845 ft 9 kts 180°
2026-05-09 01:40 40.96782 -98.31682 1845 ft 10 kts 179°
2026-05-09 01:40 40.96651 -98.31684 1845 ft 31 kts 182°
2026-05-09 01:40 40.96450 -98.31687 1845 ft 25 kts 180°
2026-05-09 01:41 40.96233 -98.31690 1845 ft 38 kts 180°
2026-05-09 01:41 40.96049 -98.31692 1844 ft 26 kts 177°
2026-05-09 01:41 40.95902 -98.31692 1844 ft 7 kts 179°
2026-05-09 01:41 40.95816 -98.31674 1844 ft 9 kts 134°
2026-05-09 01:42 40.95804 -98.31633 1844 ft 0 kts 92°
2026-05-09 01:42 40.95804 -98.31620 1844 ft 6 kts 91°
2026-05-09 01:42 40.95804 -98.31597 1844 ft 0 kts 90°
2026-05-09 01:42 40.95804 -98.31531 1843 ft 15 kts 87°
2026-05-09 01:43 40.95887 -98.31491 1843 ft 0 kts 358°
2026-05-09 01:45 40.95928 -98.31492 1843 ft 31 kts 359°
2026-05-09 01:45 40.96418 -98.31490 1846 ft 106 kts
2026-05-09 01:45 40.97354 -98.31524 1874 ft 153 kts 355°
2026-05-09 01:46 40.98443 -98.31655 2026 ft 172 kts 354°
2026-05-09 01:46 40.99664 -98.32154 2099 ft 192 kts 321°
2026-05-09 01:46 41.00317 -98.33618 2909 ft 188 kts 280°
2026-05-09 01:46 41.00126 -98.35321 3584 ft 192 kts 253°
2026-05-09 01:47 40.99659 -98.37000 4239 ft 194 kts 255°
2026-05-09 01:47 40.99338 -98.38730 4923 ft 193 kts 266°
2026-05-09 01:47 40.99274 -98.40498 5611 ft 193 kts 276°
2026-05-09 01:47 40.99484 -98.42241 6317 ft 191 kts 290°
2026-05-09 01:48 40.99978 -98.43866 7010 ft 190 kts 297°
2026-05-09 01:48 41.00545 -98.45468 7697 ft 193 kts 297°
2026-05-09 01:48 41.01101 -98.47087 8440 ft 194 kts 296°
2026-05-09 01:48 41.01655 -98.48725 9192 ft 195 kts 296°
2026-05-09 01:49 41.02212 -98.50372 9906 ft 199 kts 296°
2026-05-09 01:49 41.02783 -98.52059 9992 ft 200 kts 296°
2026-05-09 01:49 41.03347 -98.53731 10002 ft 199 kts 296°
2026-05-09 01:49 41.03907 -98.55386 9997 ft 200 kts 296°
2026-05-09 01:50 41.04474 -98.57065 9995 ft 199 kts 296°
2026-05-09 01:50 41.05041 -98.58746 9995 ft 199 kts 296°
2026-05-09 01:50 41.05607 -98.60422 10000 ft 199 kts 296°
2026-05-09 01:50 41.06173 -98.62103 9994 ft 199 kts 296°
2026-05-09 01:51 41.06738 -98.63779 9997 ft 199 kts 296°
2026-05-09 01:51 41.07301 -98.65452 9994 ft 199 kts 296°
2026-05-09 01:51 41.07865 -98.67128 9998 ft 199 kts 296°
2026-05-09 01:51 41.08427 -98.68802 9994 ft 199 kts 296°
2026-05-09 01:52 41.08991 -98.70476 10001 ft 199 kts 296°
2026-05-09 01:52 41.09554 -98.72156 9987 ft 199 kts 296°
2026-05-09 01:52 41.10121 -98.73841 9991 ft 201 kts 296°
2026-05-09 01:52 41.10687 -98.75530 9988 ft 201 kts 296°
2026-05-09 01:53 41.11253 -98.77220 9995 ft 201 kts 296°
2026-05-09 01:53 41.11846 -98.78983 9995 ft 225 kts 296°
2026-05-09 01:53 41.12528 -98.81012 10001 ft 256 kts 295°
2026-05-09 01:53 41.13290 -98.83293 10010 ft 283 kts 295°
2026-05-09 01:54 41.14108 -98.85747 10010 ft 297 kts 295°
2026-05-09 01:54 41.14949 -98.88268 10010 ft 298 kts 295°
2026-05-09 01:54 41.15787 -98.90780 10008 ft 297 kts 295°
2026-05-09 01:54 41.16626 -98.93296 10009 ft 298 kts 295°
2026-05-09 01:55 41.17440 -98.95740 9970 ft 283 kts 295°
2026-05-09 01:55 41.18196 -98.98022 9956 ft 256 kts 295°
2026-05-09 01:55 41.18882 -99.00083 9947 ft 229 kts 295°
2026-05-09 01:55 41.19500 -99.01943 9206 ft 227 kts 295°
2026-05-09 01:56 41.20142 -99.03866 8809 ft 225 kts 295°
2026-05-09 01:56 41.20770 -99.05762 8413 ft 224 kts 295°
2026-05-09 01:56 41.21395 -99.07647 8013 ft 222 kts 295°
2026-05-09 01:56 41.22010 -99.09529 7612 ft 221 kts 291°
2026-05-09 01:57 41.22313 -99.11544 7188 ft 224 kts 280°
2026-05-09 01:57 41.22501 -99.13595 6802 ft 223 kts 281°
2026-05-09 01:57 41.22729 -99.15629 6434 ft 222 kts 282°
2026-05-09 01:57 41.22974 -99.17643 6050 ft 221 kts 282°
2026-05-09 01:58 41.23208 -99.19623 5926 ft 208 kts 282°
2026-05-09 01:58 41.23424 -99.21443 5909 ft 191 kts 284°
2026-05-09 01:58 41.23648 -99.23140 5699 ft 189 kts 282°
2026-05-09 01:58 41.23835 -99.24866 5446 ft 188 kts 282°
2026-05-09 01:59 41.24027 -99.26568 5216 ft 185 kts 283°
2026-05-09 01:59 41.24224 -99.28261 4957 ft 185 kts 283°
2026-05-09 01:59 41.24420 -99.29949 4699 ft 185 kts 283°
2026-05-09 01:59 41.24617 -99.31646 4396 ft 187 kts 283°
2026-05-09 02:00 41.24814 -99.33349 4274 ft 185 kts 283°
2026-05-09 02:00 41.25008 -99.35036 4271 ft 185 kts 283°
2026-05-09 02:00 41.25205 -99.36724 4274 ft 185 kts 283°
2026-05-09 02:00 41.25398 -99.38413 4283 ft 185 kts 283°
2026-05-09 02:01 41.25594 -99.40108 4290 ft 186 kts 283°
2026-05-09 02:01 41.25790 -99.41819 4293 ft 187 kts 283°
2026-05-09 02:01 41.25985 -99.43522 4296 ft 186 kts 283°
2026-05-09 02:01 41.26181 -99.45215 4298 ft 188 kts 283°
2026-05-09 02:02 41.26377 -99.46936 4288 ft 187 kts 283°
2026-05-09 02:02 41.26588 -99.48660 4293 ft 190 kts 289°
2026-05-09 02:02 41.27115 -99.50227 4295 ft 183 kts 307°
2026-05-09 02:02 41.27954 -99.51458 4298 ft 180 kts 324°
2026-05-09 02:03 41.29013 -99.52351 4304 ft 180 kts 331°
2026-05-09 02:03 41.30087 -99.53221 4306 ft 182 kts 329°
2026-05-09 02:03 41.31147 -99.54087 4308 ft 174 kts 330°
2026-05-09 02:03 41.32154 -99.54904 4301 ft 165 kts 330°
2026-05-09 02:04 41.33141 -99.55700 4311 ft 168 kts 330°
2026-05-09 02:04 41.34150 -99.56517 4305 ft 170 kts 330°
2026-05-09 02:04 41.35156 -99.57331 4300 ft 168 kts 329°
2026-05-09 02:04 41.36156 -99.58141 4131 ft 169 kts 330°
2026-05-09 02:05 41.37149 -99.58945 3919 ft 170 kts 330°
2026-05-09 02:05 41.38152 -99.59758 3705 ft 167 kts 330°
2026-05-09 02:05 41.39153 -99.60570 3484 ft 167 kts 329°
2026-05-09 02:05 41.40145 -99.61374 3257 ft 169 kts 328°
2026-05-09 02:06 41.41087 -99.62137 3026 ft 139 kts 328°
2026-05-09 02:06 41.41815 -99.62728 2844 ft 108 kts 327°
2026-05-09 02:06 41.42418 -99.63216 2709 ft 101 kts 327°
2026-05-09 02:07 41.43527 -99.64118 2526 ft 55 kts 328°
2026-05-09 02:07 41.43679 -99.64242 2531 ft 23 kts 328°
2026-05-09 02:07 41.43843 -99.64376 2539 ft 32 kts 328°
2026-05-09 02:07 41.43965 -99.64464 2539 ft 3 kts 51°
2026-05-09 02:08 41.43923 -99.64428 2539 ft 16 kts 159°
2026-05-09 02:08 41.43757 -99.64317 2530 ft 38 kts 152°
2026-05-09 02:08 41.43524 -99.64123 2523 ft 10 kts 143°
2026-05-09 02:08 41.43411 -99.64026 2519 ft 30 kts 157°
2026-05-09 02:09 41.43221 -99.63879 2520 ft 14 kts 140°
2026-05-09 02:09 41.43177 -99.63792 2524 ft 10 kts 59°
2026-05-09 02:09 41.43248 -99.63724 2524 ft 1 kts 25°
2026-05-09 02:09 41.43269 -99.63698 2525 ft 1 kts 123°
2026-05-09 02:10 41.43267 -99.63697 2525 ft 0 kts 144°